Orbital Elements at Epoch 2459200.5 (2020-Dec-17.0) TDB
Reference: JPL 31 (heliocentric ecliptic J2000)
Element | Value | Uncertainty (1-sigma) | Units |
e | .08341510552308233 | 3.3263e-08 | |
a | 2.78490600107291 | 1.3126e-08 | au |
q | 2.552602773121548 | 9.3516e-08 | au |
i | 4.251140815436407 | 3.6647e-06 | deg |
node | 47.79426136740644 | 5.0883e-05 | deg |
peri | 266.0862636499758 | 5.5628e-05 | deg |
M | 195.3158410510909 | 2.319e-05 | deg |
tp | 2459977.039521548193 (2023-Feb-01.53952155) | 0.00010974 | TDB |
period | 1697.517414799303 4.65 | 1.2001e-05 3.286e-08 | d yr |
n | .2120744075209165 | 1.4993e-09 | deg/d |
Q | 3.017209229024272 | 1.4221e-08 | au |
|
| | Orbit Determination Parameters
Additional Information
|